• In Netherlands
  • List of Countries
  • For 7 days
  • Water Temperature
  • Satellite Maps
  • Weather Map
  • Weather Widgets
  • user-avatar
    Login

    Hourly Weather Asadabad

    Today, 18 January, Wednesday

    Time Temperature Precipitation Wind Pressure Humidity
    00:00 +3°C° 0 mm 1 mps 658 mmHg 62%
    01:00 +3°C° 0 mm 1 mps 658 mmHg 62%
    02:00 +2°C° 0 mm 1 mps 658 mmHg 63%
    03:00 +2°C° 0 mm 1 mps 658 mmHg 64%
    04:00 +2°C° 0 mm 1 mps 658 mmHg 65%
    05:00 +2°C° 0 mm 1 mps 658 mmHg 68%
    06:00 +2°C° 0 mm 1 mps 658 mmHg 66%
    07:00 +2°C° 0 mm 1 mps 659 mmHg 65%
    08:00 +3°C° 0 mm 1 mps 659 mmHg 64%
    09:00 +4°C° 0.1 mm 1 mps 659 mmHg 60%
    10:00 +5°C° 0.1 mm 1 mps 660 mmHg 56%
    11:00 +6°C° 0 mm 1 mps 660 mmHg 52%
    12:00 +6°C° 0.1 mm 1 mps 660 mmHg 52%
    13:00 +6°C° 0.1 mm 1 mps 660 mmHg 52%
    14:00 +6°C° 0.1 mm 1 mps 660 mmHg 52%
    15:00 +6°C° 0.1 mm 1 mps 660 mmHg 56%
    16:00 +5°C° 0.1 mm 1 mps 661 mmHg 60%
    17:00 +5°C° 0.1 mm 1 mps 661 mmHg 64%
    18:00 +4°C° 0.1 mm 1 mps 661 mmHg 67%
    19:00 +4°C° 0.1 mm 1 mps 661 mmHg 71%
    20:00 +2°C° 0.1 mm 0 mps 662 mmHg 74%
    21:00 +3°C° 0.1 mm 1 mps 662 mmHg 74%
    22:00 +3°C° 0.1 mm 1 mps 662 mmHg 73%
    23:00 +3°C° 0.1 mm 1 mps 662 mmHg 72%

    Tomorrow, 19 January, Thursday

    Time Temperature Precipitation Wind Pressure Humidity
    00:00 +2°C° 0.1 mm 1 mps 662 mmHg 72%
    01:00 +2°C° 0.1 mm 1 mps 662 mmHg 72%
    02:00 +2°C° 0.1 mm 1 mps 662 mmHg 72%
    03:00 +1°C° 0 mm 1 mps 662 mmHg 71%
    04:00 +1°C° 0 mm 1 mps 661 mmHg 70%
    05:00 0°C° 0 mm 1 mps 661 mmHg 69%
    06:00 0°C° 0 mm 1 mps 662 mmHg 65%
    07:00 -1°C° 0 mm 2 mps 662 mmHg 62%
    08:00 -1°C° 0 mm 2 mps 662 mmHg 59%
    09:00 +2°C° 0 mm 2 mps 663 mmHg 53%
    10:00 +3°C° 0 mm 2 mps 663 mmHg 46%
    11:00 +5°C° 0 mm 2 mps 664 mmHg 40%
    12:00 +7°C° 0 mm 1 mps 663 mmHg 40%
    13:00 +8°C° 0 mm 1 mps 663 mmHg 39%
    14:00 +8°C° 0 mm 1 mps 663 mmHg 38%
    15:00 +7°C° 0 mm 1 mps 662 mmHg 42%
    16:00 +6°C° 0 mm 1 mps 662 mmHg 45%
    17:00 +5°C° 0 mm 1 mps 662 mmHg 49%
    18:00 +4°C° 0 mm 1 mps 662 mmHg 48%
    19:00 +2°C° 0 mm 2 mps 662 mmHg 47%
    20:00 +1°C° 0 mm 2 mps 663 mmHg 46%
    21:00 +1°C° 0 mm 2 mps 663 mmHg 44%
    22:00 0°C° 0 mm 3 mps 663 mmHg 43%
    23:00 -1°C° 0 mm 3 mps 663 mmHg 41%

    Day after tomorrow, 20 January, Friday

    Time Temperature Precipitation Wind Pressure Humidity
    00:00 -1°C° 0 mm 3 mps 663 mmHg 39%
    01:00 -1°C° 0 mm 3 mps 663 mmHg 38%
    02:00 -1°C° 0 mm 3 mps 662 mmHg 36%
    03:00 -1°C° 0 mm 3 mps 662 mmHg 35%
    04:00 -1°C° 0 mm 3 mps 662 mmHg 33%
    05:00 -1°C° 0 mm 3 mps 662 mmHg 32%
    06:00 -1°C° 0 mm 3 mps 662 mmHg 31%
    07:00 -1°C° 0 mm 3 mps 662 mmHg 30%
    08:00 0°C° 0 mm 3 mps 663 mmHg 29%
    09:00 +2°C° 0 mm 3 mps 663 mmHg 26%
    10:00 +6°C° 0 mm 2 mps 663 mmHg 23%
    11:00 +8°C° 0 mm 2 mps 663 mmHg 21%
    12:00 +9°C° 0 mm 2 mps 663 mmHg 21%
    13:00 +9°C° 0 mm 2 mps 662 mmHg 21%
    14:00 +10°C° 0 mm 2 mps 662 mmHg 21%
    15:00 +9°C° 0 mm 2 mps 661 mmHg 24%
    16:00 +7°C° 0 mm 2 mps 661 mmHg 27%
    17:00 +6°C° 0 mm 2 mps 660 mmHg 30%
    18:00 +5°C° 0 mm 2 mps 661 mmHg 31%
    19:00 +4°C° 0 mm 2 mps 661 mmHg 31%
    20:00 +2°C° 0 mm 3 mps 661 mmHg 31%
    21:00 +2°C° 0 mm 3 mps 661 mmHg 31%
    22:00 +2°C° 0 mm 3 mps 662 mmHg 30%
    23:00 +2°C° 0 mm 3 mps 662 mmHg 30%

    21 January, Saturday

    Time Temperature Precipitation Wind Pressure Humidity
    00:00 +2°C° 0 mm 3 mps 661 mmHg 30%
    01:00 +2°C° 0 mm 3 mps 661 mmHg 29%
    02:00 +2°C° 0 mm 3 mps 661 mmHg 29%
    03:00 +2°C° 0 mm 3 mps 661 mmHg 29%
    04:00 +2°C° 0 mm 3 mps 661 mmHg 30%
    05:00 +2°C° 0 mm 3 mps 661 mmHg 31%
    06:00 +2°C° 0 mm 3 mps 661 mmHg 32%
    07:00 +3°C° 0 mm 3 mps 661 mmHg 33%
    08:00 +3°C° 0 mm 3 mps 662 mmHg 35%
    09:00 +5°C° 0 mm 3 mps 662 mmHg 32%
    10:00 +8°C° 0 mm 3 mps 662 mmHg 29%
    11:00 +10°C° 0 mm 3 mps 663 mmHg 26%
    12:00 +10°C° 0 mm 2 mps 662 mmHg 25%
    13:00 +12°C° 0 mm 2 mps 662 mmHg 23%
    14:00 +13°C° 0 mm 2 mps 662 mmHg 22%
    15:00 +10°C° 0 mm 2 mps 661 mmHg 25%
    16:00 +9°C° 0 mm 2 mps 661 mmHg 27%
    17:00 +8°C° 0 mm 2 mps 661 mmHg 30%
    18:00 +7°C° 0 mm 2 mps 661 mmHg 31%
    19:00 +5°C° 0 mm 3 mps 662 mmHg 32%
    20:00 +4°C° 0 mm 3 mps 662 mmHg 34%
    21:00 +4°C° 0 mm 3 mps 663 mmHg 34%
    22:00 +4°C° 0 mm 3 mps 663 mmHg 35%
    23:00 +4°C° 0 mm 3 mps 663 mmHg 35%

    22 January, Sunday

    Time Temperature Precipitation Wind Pressure Humidity
    00:00 +4°C° 0 mm 3 mps 663 mmHg 36%
    01:00 +4°C° 0 mm 3 mps 663 mmHg 37%
    02:00 +4°C° 0 mm 3 mps 663 mmHg 37%
    03:00 +4°C° 0 mm 3 mps 663 mmHg 39%
    04:00 +3°C° 0 mm 3 mps 662 mmHg 40%
    05:00 +3°C° 0 mm 3 mps 662 mmHg 41%
    06:00 +3°C° 0 mm 3 mps 663 mmHg 41%
    07:00 +3°C° 0 mm 3 mps 663 mmHg 42%
    08:00 +4°C° 0 mm 3 mps 663 mmHg 42%
    09:00 +5°C° 0 mm 3 mps 663 mmHg 38%
    10:00 +8°C° 0 mm 3 mps 664 mmHg 35%
    11:00 +10°C° 0 mm 3 mps 664 mmHg 31%
    12:00 +12°C° 0 mm 2 mps 663 mmHg 30%
    13:00 +12°C° 0 mm 2 mps 663 mmHg 30%
    14:00 +12°C° 0 mm 2 mps 662 mmHg 30%
    15:00 +12°C° 0 mm 2 mps 662 mmHg 32%
    16:00 +10°C° 0 mm 2 mps 662 mmHg 35%
    17:00 +9°C° 0 mm 2 mps 662 mmHg 38%
    18:00 +8°C° 0 mm 2 mps 662 mmHg 40%
    19:00 +8°C° 0 mm 3 mps 663 mmHg 42%
    20:00 +7°C° 0 mm 3 mps 663 mmHg 45%
    21:00 +7°C° 0.1 mm 3 mps 663 mmHg 47%
    22:00 +7°C° 0.1 mm 3 mps 663 mmHg 49%
    23:00 +5°C° 0.1 mm 3 mps 663 mmHg 51%

    23 January, Monday

    Time Temperature Precipitation Wind Pressure Humidity
    00:00 +5°C° 0.1 mm 3 mps 663 mmHg 53%
    01:00 +5°C° 0.1 mm 3 mps 662 mmHg 55%
    02:00 +4°C° 0.1 mm 3 mps 662 mmHg 56%
    03:00 +4°C° 0.1 mm 3 mps 662 mmHg 57%
    04:00 +4°C° 0.1 mm 3 mps 662 mmHg 58%
    05:00 +5°C° 0.1 mm 2 mps 662 mmHg 59%
    06:00 +5°C° 0 mm 2 mps 662 mmHg 59%
    07:00 +5°C° 0 mm 2 mps 662 mmHg 58%
    08:00 +5°C° 0 mm 2 mps 663 mmHg 58%
    09:00 +6°C° 0 mm 2 mps 663 mmHg 53%
    10:00 +8°C° 0 mm 2 mps 663 mmHg 49%
    11:00 +10°C° 0 mm 2 mps 663 mmHg 44%
    12:00 +10°C° 0 mm 2 mps 662 mmHg 44%
    13:00 +12°C° 0 mm 2 mps 662 mmHg 44%
    14:00 +12°C° 0 mm 2 mps 661 mmHg 44%
    15:00 +10°C° 0.1 mm 2 mps 661 mmHg 46%
    16:00 +10°C° 0.1 mm 2 mps 661 mmHg 49%
    17:00 +9°C° 0.1 mm 2 mps 661 mmHg 52%
    18:00 +9°C° 0.2 mm 2 mps 661 mmHg 55%
    19:00 +8°C° 0.2 mm 3 mps 661 mmHg 58%
    20:00 +8°C° 0.2 mm 3 mps 662 mmHg 60%
    21:00 +7°C° 0.3 mm 3 mps 662 mmHg 63%
    22:00 +7°C° 0.3 mm 3 mps 661 mmHg 65%
    23:00 +7°C° 0.3 mm 3 mps 661 mmHg 67%
    Show more